This is the latest recevied weather packets stored in our database for station/object AH6GR. If no packets are shown the sender has not sent any weather packets the latest 10 day(s).
| Time | Temp. | Humidity | Pressure | Rain* | Wind** | Luminosity | Snow |
|---|---|---|---|---|---|---|---|
| 1777495221 | 23.33° C | 77% | 1019.9 hPa | 0 mm | - | - | - |
| 1777494621 | 23.33° C | 79% | 1020 hPa | 0 mm | - | - | - |
| 1777494612 | 23.33° C | 79% | 1019.1 hPa | 0 mm | - | - | - |
| 1777494021 | 23.33° C | 75% | 1019.9 hPa | 0 mm | - | - | - |
| 1777493757 | 23.33° C | 77% | 1018.9 hPa | 0 mm | - | - | - |
| 1777493421 | 23.89° C | 76% | 1019.9 hPa | 0 mm | - | - | - |
| 1777492838 | 23.33° C | 76% | 1018.9 hPa | 0 mm | - | - | - |
| 1777492821 | 23.89° C | 76% | 1019.7 hPa | 0 mm | - | - | - |
| 1777492221 | 23.33° C | 76% | 1019.8 hPa | 0 mm | - | - | - |
| 1777491913 | 23.33° C | 76% | 1018.8 hPa | 0 mm | - | - | - |
| 1777491621 | 23.33° C | 76% | 1019.8 hPa | 0 mm | - | - | - |
| 1777491062 | 23.33° C | 74% | 1018.9 hPa | 0 mm | - | - | - |
| 1777491021 | 23.89° C | 75% | 1019.8 hPa | 0 mm | - | - | - |
| 1777490421 | 23.33° C | 78% | 1019.7 hPa | 0 mm | - | - | - |
| 1777490139 | 22.78° C | 77% | 1018.9 hPa | 0 mm | - | - | - |
| 1777489820 | 23.33° C | 77% | 1019.7 hPa | 0 mm | - | - | - |
| 1777489221 | 22.78° C | 79% | 1019.6 hPa | 0 mm | - | - | - |
| 1777489216 | 22.78° C | 79% | 1018.7 hPa | 0 mm | - | - | - |
| 1777488620 | 22.78° C | 78% | 1019.6 hPa | 0 mm | - | - | - |
| 1777488356 | 22.78° C | 77% | 1018.7 hPa | 0 mm | - | - | - |
| 1777488021 | 22.78° C | 78% | 1019.6 hPa | 0 mm | - | - | - |
| 1777487425 | 22.22° C | 80% | 1018.6 hPa | 0 mm | - | - | - |
| 1777487421 | 22.22° C | 80% | 1019.4 hPa | 0 mm | - | - | - |
| 1777486821 | 22.78° C | 79% | 1019.4 hPa | 0 mm | - | - | - |
| 1777486566 | 22.22° C | 78% | 1018.4 hPa | 0 mm | - | - | - |
* Rain latest hour (hover to see other rain measurements)
** Current wind speed in m/s (hover to see current wind gust speed)